XIWANG-1 (HOPE-1)

Last updated on Mon Jun 22 2026 00:03:18 GMT+0000 (Coordinated Universal Time)

1 36122U 09072B 26172.49983234 -.00000340 00000+0 -77539-3 0 9994 2 36122 100.4031 126.2633 0006978 220.7074 139.3518 13.16438347793571
UTC large
Height (km)
Speed (km/s)
/
Latitude / Longitude
Inclination (degrees)
Orbital Period (minutes)
Azimuth
Elevation
Range (km)
Doppler Factor

Next 0 passes for location: London (51.5072 / 0.1276)

No passes found over London.
XIWANG-1 (HOPE-1)